Weather History for KLWD - January, 2013

Change the Weather History Date:

Tuesday, January 8, 2013

  Actual Average Record
Temperature  
Mean Temperature 39 °F 24 °F  
Max Temperature 49 °F 33 °F 66 °F (2003)
Min Temperature 29 °F 15 °F -13 °F (1970)
Degree Days  
Heating Degree Days 26 41  
Month to date heating degree days 309 328  
Since 1 July heating degree days 2539 2757  
Cooling Degree Days 0 0  
Month to date cooling degree days 0 0  
Year to date cooling degree days 0 0  
Moisture  
Dew Point 28 °F    
Average Humidity 68    
Maximum Humidity 85    
Minimum Humidity 50    
Precipitation  
Precipitation 0.00 in 0.01 in 0.08 in (1968)
Month to date precipitation T 0.17  
Sea Level Pressure  
Sea Level Pressure 30.01 in    
Wind  
Wind Speed 11 mph (SSW)    
Max Wind Speed 22 mph    
Max Gust Speed 29 mph    
Visibility 10 miles    
Events      
T = Trace of Precipitation, MM = Missing Value Source: NWS Daily Summary

Daily Weather History Graph

Daily Weather History Graph

Search for Another Location

Airport or City:

Trip Planner

Search our weather history database for the weather conditions in past years. The results will help you decide how hot, cold, wet, or windy it might be!

Date:

Astronomy

Jan. 08, 2013 Rise Set
Actual Time 7:39 AM CST 5:06 PM CST
Civil Twilight 7:08 AM CST 5:36 PM CST
Nautical Twilight 6:34 AM CST 6:10 PM CST
Astronomical Twilight 6:01 AM CST 6:43 PM CST
Moon 4:12 AM CST (1/8) 2:08 PM CST (1/8)
Length of Visible Light 10h 27m
Length of Day
9h 26m
Waning Crescent, 13% of the Moon is Illuminated
Jan 8
Waning Crescent
Jan 11
New
Jan 18
First Quarter
Jan 26
Full
Feb 3
Last Quarter

Hourly Weather History & Observations

Time (CST) Temp. Windchill Dew Point Humidity Pressure Visibility Wind Dir Wind Speed Gust Speed Precip Events Conditions
12:53 AM 30.9 °F 22.8 °F 24.1 °F 76% 30.03 in 10.0 mi South 9.2 mph - N/A   Clear
1:53 AM 30.9 °F 22.2 °F 24.1 °F 76% 30.03 in 10.0 mi South 10.4 mph - N/A   Clear
2:53 AM 30.9 °F 22.8 °F 24.1 °F 76% 30.03 in 10.0 mi South 9.2 mph - N/A   Clear
3:53 AM 30.9 °F 22.8 °F 24.1 °F 76% 30.02 in 10.0 mi South 9.2 mph - N/A   Clear
4:53 AM 30.9 °F 22.8 °F 25.0 °F 79% 30.00 in 10.0 mi South 9.2 mph - N/A   Clear
5:53 AM 30.0 °F 22.4 °F 24.1 °F 79% 29.99 in 10.0 mi South 8.1 mph - N/A   Clear
6:53 AM 30.0 °F 23.2 °F 25.0 °F 82% 30.01 in 10.0 mi South 6.9 mph - N/A   Clear
7:53 AM 28.9 °F 21.9 °F 25.0 °F 85% 30.01 in 10.0 mi SSE 6.9 mph - N/A   Clear
8:53 AM 30.9 °F 24.3 °F 26.1 °F 82% 30.03 in 10.0 mi South 6.9 mph - N/A   Clear
9:53 AM 35.1 °F 26.9 °F 28.9 °F 78% 30.03 in 10.0 mi South 11.5 mph - N/A   Clear
10:53 AM 39.0 °F 31.8 °F 30.0 °F 70% 30.01 in 10.0 mi SSW 11.5 mph - N/A   Clear
11:53 AM 45.0 °F 38.2 °F 30.9 °F 58% 29.98 in 10.0 mi SSW 15.0 mph 24.2 mph N/A   Clear
12:53 PM 46.9 °F - 30.9 °F 54% 29.95 in 10.0 mi SSW 15.0 mph 24.2 mph N/A   Clear
1:53 PM 48.0 °F - 30.0 °F 50% 29.92 in 10.0 mi South 16.1 mph 25.3 mph N/A   Clear
2:53 PM 46.9 °F - 30.9 °F 54% 29.90 in 10.0 mi South 15.0 mph 24.2 mph N/A   Clear
3:53 PM 46.9 °F - 30.0 °F 52% 29.92 in 10.0 mi South 19.6 mph - N/A   Clear
4:53 PM 44.1 °F 39.0 °F 30.0 °F 58% 29.96 in 10.0 mi South 9.2 mph - N/A   Clear
5:53 PM 41.0 °F 34.3 °F 30.0 °F 65% 29.98 in 10.0 mi South 11.5 mph - N/A   Clear
6:53 PM 39.0 °F 32.3 °F 28.9 °F 67% 30.00 in 10.0 mi SSW 10.4 mph - N/A   Clear
7:53 PM 41.0 °F 35.2 °F 30.0 °F 65% 30.04 in 10.0 mi WSW 9.2 mph - N/A   Clear
8:53 PM 39.9 °F 33.4 °F 30.0 °F 68% 30.06 in 10.0 mi WSW 10.4 mph - N/A   Clear
9:53 PM 37.9 °F 30.5 °F 30.0 °F 73% 30.08 in 10.0 mi West 11.5 mph - N/A   Clear
10:53 PM 34.0 °F 26.0 °F 28.0 °F 79% 30.12 in 10.0 mi West 10.4 mph - N/A   Clear
11:53 PM 33.1 °F 25.5 °F 27.0 °F 78% 30.14 in 10.0 mi West 9.2 mph - N/A   Clear